Tracking 34151 objects as of 20-May-2026
HD Live streaming from Space Station
objects crossing your sky now

HULIANWANG DIGUI-155

Track HULIANWANG DIGUI-155 now!
10-day predictions


NORAD ID: 68129
Int'l Code: 2026-047A
Perigee: 1,156.3 km
Apogee: 1,156.6 km
Inclination: 50.0 °
Period: 108.3 minutes
Semi major axis: 7527 km
RCS: Unknown
Launch date: March 12, 2026
Source: People's Republic of China (PRC)
Launch site: Wenchang Satellite Launch Center (WSC)
Your satellite tracking list
Your tracking list is empty




NASA's NSSDC Master Catalog

Two Line Element Set (TLE):
1 68129U 26047A   26140.48812564 -.00000112  00000-0  25975-4 0  9993
2 68129  50.0008 155.7319 0000169 340.3188  19.7678 13.29330031  9388
Source of the keplerian elements: AFSPC